Albion, NE

6:53 PM CDT on April 25, 2017 (GMT -0500)
Albion Municipal

Weather History for KBVN - May, 2013

Change the Weather History Date:

Saturday, May 18, 2013

  Actual Average (KOFK) Record (KOFK)
Temperature  
Mean Temperature 72 °F -  
Max Temperature 81 °F 73 °F 100 °F (1934)
Min Temperature 63 °F 50 °F 30 °F (2002)
Cooling Degree Days 7    
Growing Degree Days 22 (Base 50)    
Moisture  
Dew Point 62 °F    
Average Humidity 73    
Maximum Humidity 87    
Minimum Humidity 57    
Precipitation  
Precipitation 0.11 in - - ()
Sea Level Pressure  
Sea Level Pressure 29.80 in    
Wind  
Wind Speed 9 mph (SE)    
Max Wind Speed 38 mph    
Max Gust Speed 45 mph    
Visibility 9 miles    
Events Rain , Thunderstorm    
Averages and records for this station are not official NWS values.
T = Trace of Precipitation, MM = Missing Value Source: NWS Daily Summary

Daily Weather History Graph

Daily Weather History Graph

Search for Another Location

Airport or City:

Trip Planner

Search our weather history database for the weather conditions in past years. The results will help you decide how hot, cold, wet, or windy it might be!

Date:

Astronomy

May. 18, 2013 Rise Set
Actual Time 6:09 AM CDT 8:48 PM CDT
Civil Twilight 5:37 AM CDT 9:20 PM CDT
Nautical Twilight 4:57 AM CDT 10:01 PM CDT
Astronomical Twilight 4:11 AM CDT 10:46 PM CDT
Moon 1:47 PM CDT (5/18) 2:08 AM CDT (5/18)
Length of Visible Light 15h 43m
Length of Day
14h 39m
First Quarter, 55% of the Moon is Illuminated
May 18
First Quarter
May 24
Full
May 31
Last Quarter
Jun 8
New
Jun 16
First Quarter

Hourly Weather History & Observations

Time (CDT) Temp. Heat Index Dew Point Humidity Pressure Visibility Wind Dir Wind Speed Gust Speed Precip Events Conditions
12:15 AM 72.5 °F - 58.6 °F 62% 29.86 in 10.0 mi South 6.9 mph - N/A   Clear
12:35 AM 70.9 °F - 59.0 °F 66% 29.87 in 10.0 mi SSE 6.9 mph - N/A   Clear
12:55 AM 70.5 °F - 59.0 °F 67% 29.88 in 10.0 mi SSE 4.6 mph - N/A   Clear
1:15 AM 69.6 °F - 59.0 °F 69% 29.88 in 10.0 mi SE 3.5 mph - N/A   Clear
1:35 AM 69.1 °F - 59.0 °F 70% 29.88 in 10.0 mi SSE 4.6 mph - N/A   Clear
1:55 AM 66.4 °F - 58.1 °F 75% 29.87 in 10.0 mi Calm Calm - N/A   Clear
2:15 AM 66.2 °F - 58.1 °F 75% 29.86 in 10.0 mi SSE 4.6 mph - N/A   Clear
2:35 AM 66.0 °F - 58.3 °F 76% 29.86 in 10.0 mi Calm Calm - N/A   Clear
2:55 AM 66.0 °F - 58.6 °F 77% 29.87 in 10.0 mi Calm Calm - N/A   Clear
3:15 AM 64.2 °F - 58.5 °F 82% 29.88 in 10.0 mi Calm Calm - N/A   Mostly Cloudy
3:35 AM 66.4 °F - 59.4 °F 78% 29.87 in 10.0 mi SE 5.8 mph - N/A   Overcast
3:55 AM 67.1 °F - 59.9 °F 78% 29.87 in 10.0 mi SE 5.8 mph - N/A   Overcast
4:15 AM 67.3 °F - 59.9 °F 77% 29.87 in 10.0 mi SE 5.8 mph - N/A   Overcast
4:35 AM 66.6 °F - 59.9 °F 79% 29.87 in 10.0 mi SE 6.9 mph - N/A   Mostly Cloudy
4:55 AM 65.3 °F - 59.5 °F 82% 29.86 in 10.0 mi ESE 6.9 mph - N/A   Scattered Clouds
5:15 AM 65.1 °F - 59.4 °F 82% 29.86 in 10.0 mi SE 8.1 mph - N/A   Clear
5:35 AM 64.8 °F - 59.4 °F 83% 29.86 in 10.0 mi SE 8.1 mph - N/A   Clear
5:55 AM 64.8 °F - 59.5 °F 83% 29.85 in 10.0 mi SE 6.9 mph - N/A   Mostly Cloudy
6:15 AM 64.8 °F - 59.4 °F 83% 29.85 in 10.0 mi SE 9.2 mph - N/A   Mostly Cloudy
6:35 AM 64.8 °F - 59.5 °F 83% 29.85 in 10.0 mi SE 6.9 mph - N/A   Mostly Cloudy
6:55 AM 64.4 °F - 59.4 °F 84% 29.85 in 10.0 mi SE 8.1 mph - N/A   Mostly Cloudy
7:15 AM 65.1 °F - 59.9 °F 83% 29.87 in 10.0 mi SE 6.9 mph - N/A   Mostly Cloudy
7:35 AM 65.7 °F - 60.3 °F 83% 29.87 in 10.0 mi SE 9.2 mph - N/A   Overcast
7:55 AM 66.2 °F - 60.4 °F 82% 29.88 in 10.0 mi ESE 5.8 mph - N/A   Overcast
8:15 AM 66.7 °F - 60.8 °F 81% 29.89 in 10.0 mi East 5.8 mph - N/A   Overcast
8:35 AM 67.3 °F - 61.2 °F 81% 29.87 in 10.0 mi East 6.9 mph - N/A   Scattered Clouds
8:55 AM 69.1 °F - 61.9 °F 78% 29.87 in 10.0 mi SE 11.5 mph - N/A   Scattered Clouds
9:15 AM 70.2 °F - 62.8 °F 77% 29.87 in 10.0 mi ESE 11.5 mph - N/A   Mostly Cloudy
9:35 AM 70.3 °F - 62.6 °F 76% 29.87 in 7.0 mi ESE 11.5 mph - N/A   Overcast
9:55 AM 71.4 °F - 63.0 °F 75% 29.87 in 10.0 mi SE 13.8 mph 17.3 mph N/A   Overcast
10:15 AM 72.0 °F - 63.3 °F 74% 29.86 in 10.0 mi SE 15.0 mph 19.6 mph N/A   Overcast
10:35 AM 71.8 °F - 63.1 °F 74% 29.86 in 7.0 mi SE 13.8 mph - N/A   Overcast
10:55 AM 71.2 °F - 63.0 °F 75% 29.86 in 7.0 mi SE 12.7 mph - N/A   Overcast
11:15 AM 71.1 °F - 63.0 °F 75% 29.87 in 7.0 mi ESE 11.5 mph - N/A   Overcast
11:35 AM 71.6 °F - 63.7 °F 76% 29.86 in 7.0 mi SE 12.7 mph - N/A   Overcast
11:55 AM 69.4 °F - 64.8 °F 85% 29.85 in 3.0 mi ESE 13.8 mph - N/A Rain Rain
12:15 PM 70.3 °F - 65.3 °F 84% 29.83 in 5.0 mi ESE 17.3 mph - N/A   Haze
12:35 PM 72.3 °F - 66.2 °F 81% 29.82 in 7.0 mi ESE 12.7 mph - N/A   Overcast
12:55 PM 73.0 °F - 65.8 °F 78% 29.81 in 7.0 mi ESE 17.3 mph 20.7 mph N/A   Overcast
1:15 PM 74.3 °F - 65.5 °F 74% 29.81 in 7.0 mi SE 19.6 mph 23.0 mph N/A   Overcast
1:35 PM 74.3 °F - 65.1 °F 73% 29.80 in 7.0 mi SE 12.7 mph 19.6 mph N/A   Overcast
2:15 PM 77.2 °F - 64.8 °F 65% 29.80 in 7.0 mi SSE 16.1 mph 23.0 mph N/A   Overcast
2:35 PM 77.2 °F - 65.1 °F 66% 29.79 in 7.0 mi SSE 10.4 mph - N/A   Overcast
2:55 PM 80.2 °F 82.2 °F 65.8 °F 61% 29.79 in 7.0 mi South 16.1 mph 20.7 mph N/A   Overcast
3:15 PM 80.6 °F 82.5 °F 65.5 °F 60% 29.79 in 10.0 mi South 17.3 mph 23.0 mph N/A   Mostly Cloudy
3:35 PM 79.9 °F - 64.9 °F 60% 29.79 in 7.0 mi SSE 18.4 mph 25.3 mph N/A   Mostly Cloudy
3:55 PM 80.2 °F 82.2 °F 65.7 °F 61% 29.77 in 7.0 mi SSE 16.1 mph - N/A   Scattered Clouds
4:15 PM 81.7 °F 83.6 °F 65.5 °F 58% 29.76 in 7.0 mi SE 19.6 mph 24.2 mph N/A   Mostly Cloudy
4:35 PM 80.8 °F 82.8 °F 65.7 °F 60% 29.75 in 10.0 mi South 15.0 mph 24.2 mph N/A   Overcast
4:55 PM 81.1 °F 83.1 °F 65.5 °F 59% 29.74 in 10.0 mi South 16.1 mph - N/A   Mostly Cloudy
5:15 PM 81.3 °F 83.5 °F 66.2 °F 60% 29.73 in 10.0 mi SSE 16.1 mph 20.7 mph N/A   Scattered Clouds
5:35 PM 80.4 °F 82.3 °F 65.5 °F 60% 29.73 in 7.0 mi SSE 16.1 mph - N/A   Scattered Clouds
5:55 PM 80.4 °F 82.6 °F 66.2 °F 62% 29.71 in 7.0 mi SSE 17.3 mph - N/A   Clear
6:15 PM 81.1 °F 83.4 °F 66.4 °F 61% 29.71 in 7.0 mi SSE 17.3 mph 21.9 mph N/A   Scattered Clouds
6:35 PM 80.6 °F 82.7 °F 66.2 °F 61% 29.70 in 7.0 mi SSE 15.0 mph - N/A   Mostly Cloudy
6:55 PM 81.0 °F 83.2 °F 66.2 °F 61% 29.70 in 10.0 mi SE 16.1 mph - N/A   Scattered Clouds
7:15 PM 80.6 °F 82.7 °F 65.8 °F 61% 29.70 in 10.0 mi SSE 16.1 mph - N/A   Scattered Clouds
7:35 PM 80.6 °F 82.7 °F 66.0 °F 61% 29.69 in 10.0 mi ESE 12.7 mph 17.3 mph N/A   Clear
7:55 PM 79.7 °F - 66.2 °F 63% 29.69 in 10.0 mi SE 10.4 mph - N/A   Scattered Clouds
8:15 PM 80.2 °F 82.3 °F 66.2 °F 62% 29.70 in 7.0 mi SSE 10.4 mph - N/A   Mostly Cloudy
8:35 PM 79.7 °F - 66.2 °F 63% 29.70 in 7.0 mi SSE 12.7 mph - N/A   Mostly Cloudy
8:55 PM 79.0 °F - 66.2 °F 65% 29.69 in 10.0 mi SSE 12.7 mph - N/A   Mostly Cloudy
9:15 PM 78.4 °F - 66.2 °F 66% 29.68 in 10.0 mi SSE 11.5 mph - N/A   Scattered Clouds
9:35 PM 78.3 °F - 66.6 °F 67% 29.67 in 10.0 mi SSE 13.8 mph - N/A Thunderstorm Mostly Cloudy
9:55 PM 76.6 °F - 60.3 °F 57% 29.74 in 7.0 mi SSW 38.0 mph 44.9 mph N/A Rain , Thunderstorm Thunderstorms and Rain
10:15 PM 63.0 °F - 59.2 °F 87% 29.71 in 5.0 mi South 16.1 mph 31.1 mph 0.08 in Rain , Thunderstorm Light Thunderstorms and Rain
10:35 PM 64.4 °F - 59.2 °F 83% 29.69 in 10.0 mi SSW 12.7 mph - 0.08 in Rain Light Rain
10:55 PM 64.8 °F - 59.0 °F 82% 29.67 in 10.0 mi South 4.6 mph 10.4 mph 0.10 in Rain Rain
11:15 PM 64.8 °F - 59.4 °F 83% 29.67 in 10.0 mi Calm Calm - 0.01 in Rain Light Rain
11:35 PM 64.9 °F - 59.2 °F 82% 29.68 in 10.0 mi West 6.9 mph - 0.01 in Rain , Thunderstorm Light Thunderstorms and Rain
11:55 PM 65.8 °F - 58.5 °F 77% 29.67 in 10.0 mi Calm Calm - 0.01 in   Scattered Clouds